Content
SEND FEEDBACK

Daily
Averages
Monthly
Summary
United States of America

ALPINE MEADOWS, CALIFORNIA


Home > North America > United States > California
Elevation: 6230 feet     Latitude: 39 12N     Longitude: 120 14W

WEATHER
 
SELECT A DAY
Number of Records: 288,965;   Date Range: 1/1/95 - 11/20/14
 
SHARE

PRINT THIS DATA

[ ← Previous Day ]
WEATHER ALMANAC - APRIL 20, 2014
[ Next Day → ]
[ °C ]   °F
Weather ElementAverageHighLow
Temperature40.1 °F66.2 °F (4:45 pm)21.2 °F (3:35 am)
Dewpoint23.9 °F33.8 °F (7:55 pm)14 °F (2:45 pm)
Humidity58.7 %87 % (11:55 pm)14 % (2:45 pm)
Barometer30.25 in30.31 in (7:50 am)30.20 in (10:55 am)
Wind Speed2.4 mph13.8 mph (6:15 pm)
Wind Gust19.6 mph (6:35 pm)
Weather ElementAverage
Visibility10 mi
Wind DirectionENE (68.3 °)

Weather ElementTotal
Precipitation---
Heating Degree Days21.3 (Base 65)
Averaged from 47 records on April 20, 2014
WEATHER CONDITIONS BREAKOUT
WIND DIRECTION BREAKOUT
WEATHER BY HOUR - APRIL 20, 2014
[ °C ]   °F
Local TimeTemperatureDewpointHumidityBarometerVisibilityWind DirectionWind SpeedGust SpeedPrecipitationEventsConditions
12:35 AM30.2 °F17.6 °F60 %30.24 in10.0 miCalmClear
12:55 AM30.2 °F17.6 °F60 %30.25 in10.0 miCalmClear
1:15 AM26.6 °F19.4 °F74 %30.25 in10.0 miCalmClear
1:35 AM28.4 °F17.6 °F64 %30.25 in10.0 miCalmClear
1:55 AM28.4 °F17.6 °F64 %30.25 in10.0 miCalmClear
2:15 AM28.4 °F17.6 °F64 %30.25 in10.0 miCalmClear
2:35 AM26.6 °F17.6 °F69 %30.25 in10.0 miENE (70°)3.5 mphClear
2:55 AM28.4 °F17.6 °F64 %30.25 in10.0 miCalmClear
3:15 AM26.6 °F17.6 °F69 %30.25 in10.0 miCalmClear
3:35 AM21.2 °F17.6 °F86 %30.25 in10.0 miSSW (210°)3.5 mphClear
3:55 AM24.8 °F19.4 °F80 %30.25 in10.0 miCalmClear
4:15 AM26.6 °F19.4 °F74 %30.25 in10.0 miCalmClear
4:35 AM23.0 °F17.6 °F80 %30.25 in10.0 miCalmClear
4:55 AM26.6 °F19.4 °F74 %30.25 in10.0 miCalmClear
5:15 AM26.6 °F17.6 °F69 %30.26 in10.0 miCalmClear
5:35 AM21.2 °F17.6 °F86 %30.26 in10.0 miCalmClear
5:55 AM23.0 °F19.4 °F86 %30.26 in10.0 miCalmClear
6:15 AM21.2 °F17.6 °F86 %30.28 in10.0 miCalmClear
6:35 AM23.0 °F17.6 °F80 %30.28 in10.0 miCalmClear
7:50 AM28.4 °F19.4 °F69 %30.31 in10.0 miCalmScattered Clouds
8:45 AM35.6 °F19.4 °F52 %30.29 in10.0 miCalmScattered Clouds
9:45 AM44.6 °F19.4 °F37 %30.29 in10.0 miCalmScattered Clouds
10:55 AM53.6 °F21.2 °F28 %30.20 in10.0 miCalmScattered Clouds
11:55 AM57.2 °F23.0 °F27 %30.27 in10.0 miNE (50°)4.6 mphMostly Cloudy
12:45 PM60.8 °F21.2 °F22 %30.25 in10.0 miNorth (350°)6.9 mphScattered Clouds
2:45 PM64.4 °F14.0 °F14 %30.22 in10.0 miENE (70°)4.6 mph9.2 mphScattered Clouds
3:55 PM64.4 °F14.0 °F14 %30.21 in10.0 miNNE (20°)3.5 mphScattered Clouds
4:45 PM66.2 °F15.8 °F14 %30.20 in10.0 miNorth (10°)3.5 mphScattered Clouds
5:55 PM64.4 °F32.0 °F30 %30.21 in10.0 miWSW (240°)11.5 mph18.4 mphScattered Clouds
6:15 PM62.6 °F32.0 °F32 %30.21 in10.0 miWest (270°)13.8 mph18.4 mphScattered Clouds
6:35 PM60.8 °F32.0 °F34 %30.22 in10.0 miWest (270°)9.2 mph19.6 mphClear
6:55 PM59.0 °F32.0 °F36 %30.22 in10.0 miWest (260°)9.2 mphClear
7:15 PM59.0 °F32.0 °F36 %30.22 in10.0 miWest (260°)5.8 mphClear
7:35 PM55.4 °F32.0 °F41 %30.22 in10.0 miWSW (240°)4.6 mphClear
7:55 PM53.6 °F33.8 °F47 %30.23 in10.0 miCalmClear
8:15 PM53.6 °F32.0 °F44 %30.23 in10.0 miCalmClear
8:35 PM46.4 °F32.0 °F57 %30.23 in10.0 miSE (140°)5.8 mphClear
8:55 PM44.6 °F32.0 °F61 %30.25 in10.0 miSE (140°)5.8 mphClear
9:15 PM44.6 °F32.0 °F61 %30.25 in10.0 miSSE (150°)4.6 mphClear
9:35 PM42.8 °F33.8 °F70 %30.25 in10.0 miCalmClear
9:55 PM41.0 °F32.0 °F70 %30.26 in10.0 miSSW (210°)3.5 mphClear
10:15 PM39.2 °F32.0 °F75 %30.25 in10.0 miSouth (170°)4.6 mphClear
10:35 PM37.4 °F32.0 °F81 %30.24 in10.0 miCalmClear
10:55 PM42.8 °F33.8 °F70 %30.25 in10.0 miCalmClear
11:15 PM37.4 °F32.0 °F81 %30.25 in10.0 miEast (80°)3.5 mphClear
11:35 PM37.4 °F32.0 °F81 %30.24 in10.0 miCalmClear
11:55 PM35.6 °F32.0 °F87 %30.25 in10.0 miCalmClear
Hourly data recorded from KTRK, located miles away from Alpine Meadows, California







STORIES FROM OUR PARTNERS